Overview Statistics Trail Chart Weather Telemetry Raw packets
 

This is the latest recevied weather packets stored in our database for station/object IZ2MHJ-3. If no packets are shown the sender has not sent any weather packets the latest 10 day(s).

<< 26 27 28 29 >>
Time Temp. Humidity Pressure Rain* Wind** Luminosity Snow
1787727065 25.56° C 68% 1018.5 hPa - - - -
1787725864 25.56° C 67% 1018.3 hPa - - - -
1787724664 24.44° C 72% 1018.1 hPa - - - -
1787722263 22.78° C 76% 1018.1 hPa - - - -
1787721063 22.22° C 78% 1018.2 hPa - - - -
1787719863 21.11° C 82% 1018 hPa - - - -
1787718663 20.56° C 84% 1017.9 hPa - - - -
1787717462 20.56° C 84% 1017.8 hPa - - - -
1787716262 20.56° C 85% 1017.6 hPa - - - -
1787715062 20.56° C 84% 1017.5 hPa - - - -
1787713861 21.11° C 83% 1017.5 hPa - - - -
1787712661 21.11° C 83% 1017.4 hPa - - - -
1787711461 20.56° C 84% 1017.6 hPa - - - -
1787710260 21.11° C 82% 1017.4 hPa - - - -
1787709060 21.11° C 83% 1017.5 hPa - - - -
1787707860 21.11° C 82% 1017.2 hPa - - - -
1787706659 21.11° C 82% 1017.2 hPa - - - -
1787705459 21.67° C 82% 1017.2 hPa - - - -
1787704259 21.67° C 82% 1017.1 hPa - - - -
1787703058 21.67° C 81% 1016.8 hPa - - - -

* Rain since midnight (hover to see other rain measurements)
** Current wind speed in m/s (hover to see current wind gust speed)